Flag for Uruguay Weather past 2 weeks in San José de Mayo, Uruguay

Now
66 °F

Clear.


Feels Like: 66 °F
Forecast: 67 / 93 °F
Wind: 12 mph from North

Location: Carrasco

Current Time: Dec 19, 2014 at 6:07:32 AM

Latest Report: Dec 19, 2014 at 5:00 AM


Visibility: 10 mi

Pressure: 29.71 "Hg

Humidity: 60%

Dew point: 52 °F

Location of San José de MayoLocation

Historic Weather in San José de Mayo — Graph

°F

San José de Mayo temperature yesterday

Maximum temperature yesterday: 81 °F (at 6:00 PM)
Minimum temperature yesterday: 63 °F (at 7:00 AM)
Average temperature yesterday: 73 °F

Past Weeks' High & Low Weather Summary

 TemperatureHumidityPressure
High91 °F (Dec 6, 4:00 PM)100% (Dec 7, 10:00 PM)30.09 "Hg (Dec 7, 10:00 PM)
Low57 °F (Dec 4, 7:00 AM)24% (Dec 5, 5:00 PM)29.59 "Hg (Dec 9, 8:00 PM)
Average71 °F68%29.91 "Hg
* Reported Dec 4 4:00 AM — Dec 19 4:00 AM, San José de Mayo, Weather by CustomWeather, © 2014

Note: Actual official high and low records may vary slightly from our data, if they occured in-between our weather recording intervals... More about our weather records

Advertising

San José de Mayo weather history for previous 24 hours

 ConditionsComfort  
Time TempWeatherWind HumidityBarometerVisibility
4:00 AM
Dec 19
66 °FClear.13 mph56%29.71 "Hg10 mi
3:00 AM66 °FClear.8 mph56%29.74 "Hg10 mi
2:00 AM70 °FClear.9 mph57%29.74 "Hg10 mi
1:00 AM70 °FClear.8 mph60%29.77 "Hg10 mi
12:00 AM72 °FClear.7 mph57%29.77 "Hg10 mi
11:00 PM
Dec 18
73 °FClear.5 mph61%29.77 "Hg10 mi
10:00 PM73 °FClear.6 mph61%29.77 "Hg10 mi
9:00 PM75 °FClear.7 mph61%29.77 "Hg10 mi
8:00 PM79 °FSunny.6 mph51%29.77 "Hg10 mi
7:00 PM81 °FSunny.6 mph42%29.77 "Hg10 mi
6:00 PM81 °FSunny.6 mph42%29.80 "Hg10 mi
5:00 PM79 °FSunny.8 mph42%29.83 "Hg10 mi
4:00 PM79 °FSunny.9 mph45%29.83 "Hg10 mi
3:00 PM79 °FSunny.6 mph48%29.86 "Hg10 mi
2:00 PM77 °FSunny.6 mph51%29.89 "Hg10 mi
1:00 PM75 °FSunny.7 mph57%29.89 "Hg10 mi
12:00 PM75 °FSunny.6 mph57%29.89 "Hg10 mi
11:00 AM73 °FSunny.5 mph53%29.89 "Hg10 mi
10:00 AM72 °FSunny.6 mph61%29.89 "Hg10 mi
9:00 AM72 °FSunny.7 mph61%29.89 "Hg10 mi
8:00 AM70 °FSunny.8 mph64%29.89 "Hg10 mi
7:00 AM63 °FSunny.3 mph83%29.86 "Hg10 mi
6:00 AM66 °FClear.6 mph73%29.86 "Hg10 mi
Weather by CustomWeather, © 2014

See weather overviewHow to use our weather pages